Florence, KY

5:18 AM EST on February 23, 2017 (GMT -0500)
Cincinnati-Northern KY International

Weather History for KCVG - March, 2011

Change the Weather History Date:

Monday, March 21, 2011

  Actual Average Record
Temperature  
Mean Temperature 71 °F 45 °F  
Max Temperature 78 °F 55 °F 83 °F (2012)
Min Temperature 63 °F 36 °F 12 °F (1885)
Degree Days  
Heating Degree Days 0 20  
Month to date heating degree days 400 488  
Since 1 July heating degree days 4440 4315  
Cooling Degree Days 6 0  
Month to date cooling degree days 6 0  
Year to date cooling degree days 6 0  
Growing Degree Days 20 (Base 50)    
Moisture  
Dew Point 54 °F    
Average Humidity 61    
Maximum Humidity 78    
Minimum Humidity 43    
Precipitation  
Precipitation T in 0.14 in 1.31 in (1962)
Month to date precipitation 4.15 2.55  
Year to date precipitation 11.52 8.36  
Snow  
Snow 0.00 in 0.10 in 4.20 in (2006)
Month to date snowfall 1.1 2.4  
Since 1 July snowfall 33.5 21.0  
Snow Depth 0.00 in    
Sea Level Pressure  
Sea Level Pressure 30.02 in    
Wind  
Wind Speed 10 mph (SW)    
Max Wind Speed 21 mph    
Max Gust Speed 29 mph    
Visibility 10 miles    
Events Rain    
T = Trace of Precipitation, MM = Missing Value Source: NWS Daily Summary

Daily Weather History Graph

Daily Weather History Graph

Search for Another Location

Airport or City:

Trip Planner

Search our weather history database for the weather conditions in past years. The results will help you decide how hot, cold, wet, or windy it might be!

Date:

Astronomy

Mar. 21, 2011 Rise Set
Actual Time 7:40 AM EDT 7:51 PM EDT
Civil Twilight 7:14 AM EDT 8:18 PM EDT
Nautical Twilight 6:43 AM EDT 8:49 PM EDT
Astronomical Twilight 6:11 AM EDT 9:21 PM EDT
Moon 10:43 PM EDT (3/21) 8:24 AM EDT (3/21)
Length of Visible Light 13h 03m
Length of Day
12h 10m
Waning Gibbous, 95% of the Moon is Illuminated
Mar 21
Waning Gibbous
Mar 26
Last Quarter
Apr 3
New
Apr 11
First Quarter
Apr 17
Full

Hourly Weather History & Observations

Time (EDT) Temp. Dew Point Humidity Pressure Visibility Wind Dir Wind Speed Gust Speed Precip Events Conditions
12:52 AM 64.9 °F 51.1 °F 61% 30.02 in 10.0 mi SW 10.4 mph - N/A   Clear
1:52 AM 66.0 °F 53.1 °F 63% 30.04 in 10.0 mi SW 10.4 mph - N/A   Scattered Clouds
2:52 AM 66.0 °F 54.0 °F 65% 30.04 in 10.0 mi SW 9.2 mph - N/A   Partly Cloudy
3:52 AM 66.0 °F 54.0 °F 65% 30.04 in 10.0 mi SSW 8.1 mph - 0.00 in Rain Light Rain
4:52 AM 66.0 °F 54.0 °F 65% 30.04 in 10.0 mi SW 9.2 mph - 0.00 in   Overcast
5:52 AM 64.0 °F 55.0 °F 73% 30.04 in 10.0 mi SSW 9.2 mph - N/A   Mostly Cloudy
6:52 AM 63.0 °F 54.0 °F 72% 30.05 in 9.0 mi SW 9.2 mph - N/A   Mostly Cloudy
7:52 AM 63.0 °F 55.0 °F 75% 30.06 in 9.0 mi SW 9.2 mph - N/A   Mostly Cloudy
8:52 AM 64.0 °F 55.0 °F 73% 30.07 in 8.0 mi SSW 11.5 mph - N/A   Mostly Cloudy
9:52 AM 66.0 °F 55.0 °F 68% 30.07 in 9.0 mi SW 11.5 mph 20.7 mph N/A   Overcast
10:52 AM 69.1 °F 55.0 °F 61% 30.06 in 9.0 mi SSW 12.7 mph 19.6 mph N/A   Overcast
11:52 AM 70.0 °F 54.0 °F 57% 30.05 in 10.0 mi SW 13.8 mph 23.0 mph N/A   Overcast
12:52 PM 72.0 °F 54.0 °F 53% 30.04 in 10.0 mi SW 15.0 mph 23.0 mph N/A   Overcast
1:52 PM 75.0 °F 54.0 °F 48% 30.02 in 10.0 mi WSW 17.3 mph 24.2 mph N/A   Mostly Cloudy
2:52 PM 77.0 °F 54.0 °F 45% 30.00 in 10.0 mi WSW 11.5 mph 24.2 mph N/A   Scattered Clouds
3:52 PM 77.0 °F 54.0 °F 45% 29.98 in 10.0 mi SW 17.3 mph - N/A   Mostly Cloudy
4:52 PM 75.2 °F 53.6 °F 47% 29.99 in 10.0 mi WSW 12.7 mph 23.0 mph N/A   Mostly Cloudy
5:52 PM 75.2 °F 55.4 °F 50% 29.98 in 10.0 mi WSW 11.5 mph 17.3 mph N/A   Overcast
6:52 PM 75.0 °F 54.0 °F 48% 29.96 in 10.0 mi WSW 11.5 mph 19.6 mph N/A   Overcast
7:52 PM 73.0 °F 54.0 °F 51% 29.96 in 10.0 mi WSW 6.9 mph - N/A   Overcast
8:52 PM 71.1 °F 54.0 °F 55% 29.98 in 10.0 mi WSW 5.8 mph - N/A   Overcast
9:52 PM 70.0 °F 54.0 °F 57% 29.99 in 10.0 mi WSW 6.9 mph - N/A   Overcast
10:52 PM 69.1 °F 54.0 °F 58% 29.99 in 10.0 mi WSW 4.6 mph - N/A   Overcast
11:52 PM 68.0 °F 54.0 °F 61% 30.00 in 10.0 mi WSW 5.8 mph - N/A   Overcast